Wind_Speed
27 37 44 42 42 44 46 46 45 45 45 44 43 42 40 39 38 36 35 33 31 31 31 30 28 26 25 23 22 17 14 13 11 12 11 9 12 16 16 12 10 10 9 11 14 11 11 16 19 20 15 9 5 4 5 2 1 3 3 2 2 2 4 4 7 7 5 6 7 6 4 8 7 3 3 4 8 6 5 6 2 5 4 5 8 22 34 30
26 32 41 43 43 45 47 48 46 46 46 45 44 43 41 39 38 37 35 33 31 31 30 29 28 26 25 23 22 17 12 10 6 6 8 10 13 16 16 14 10 6 8 15 19 17 11 9 14 16 7 4 3 3 4 2 0 3 2 2 4 5 5 5 7 7 5 8 8 6 5 7 8 6 4 4 3 4 6 5 4 6 7 7 15 27 31 28
25 28 36 41 41 42 46 49 48 47 46 45 44 43 42 40 38 37 36 34 31 31 30 27 27 25 25 24 21 18 12 7 2 5 9 12 13 15 16 15 11 6 8 17 19 18 13 7 7 8 2 3 2 2 4 3 1 2 2 1 5 5 4 5 5 7 6 9 11 6 5 6 6 5 4 6 6 4 5 3 1 3 5 8 14 23 27 26
27 27 31 36 41 43 44 48 49 48 48 46 45 44 42 40 39 38 36 34 31 30 29 27 26 24 24 23 20 19 10 3 3 7 12 16 15 16 16 15 13 9 11 20 19 17 16 13 6 3 2 3 3 2 3 3 1 1 3 4 6 2 3 6 3 5 5 8 12 8 5 6 6 3 4 9 7 2 5 7 7 9 11 11 12 18 23 24
28 28 25 27 36 44 45 49 50 48 49 46 46 45 42 41 39 38 36 35 32 30 29 27 25 22 22 22 20 20 11 2 5 11 17 19 18 18 17 16 15 12 13 20 19 18 17 14 6 2 4 3 4 4 4 4 2 2 3 6 6 2 2 6 4 2 4 5 8 9 7 6 4 1 5 11 8 5 7 8 10 13 15 15 16 19 20 20
25 29 28 24 30 41 44 49 50 48 49 47 46 45 43 42 40 38 37 35 33 31 30 27 25 23 21 20 20 20 13 3 2 10 20 21 20 20 18 17 16 14 14 19 18 16 13 9 6 3 4 2 4 5 6 5 2 2 4 3 4 3 3 4 3 2 5 7 8 9 6 5 6 2 5 10 8 7 7 8 11 13 18 21 21 20 17 17
22 28 30 27 29 37 41 47 51 48 48 47 46 45 43 42 40 39 37 35 33 32 31 28 26 25 22 21 18 13 9 5 2 8 22 23 21 20 19 18 17 17 17 19 18 12 8 7 4 2 3 1 3 6 8 6 2 4 5 4 3 4 5 3 4 3 4 7 8 7 6 7 8 5 4 6 8 6 4 7 13 15 19 20 18 17 17 19
23 26 27 27 29 34 39 45 53 50 49 49 47 45 44 42 41 39 37 35 33 32 31 29 28 26 24 21 13 4 4 6 2 6 21 24 21 20 20 19 19 19 19 20 19 13 8 7 3 2 3 1 3 6 8 7 2 4 6 4 1 2 3 3 4 1 4 4 3 8 8 7 7 5 6 7 8 3 1 7 13 14 16 16 15 15 17 19
24 26 27 29 30 32 36 43 53 51 49 49 47 46 45 43 41 39 37 36 34 32 31 30 29 27 25 19 9 3 6 10 6 6 21 28 24 23 21 20 21 21 19 18 22 20 10 5 3 2 4 0 3 6 7 5 3 5 6 4 2 2 3 3 3 1 3 2 4 8 5 2 3 2 4 7 7 2 5 9 12 13 13 13 12 14 17 17
23 26 28 31 31 30 32 37 48 51 48 48 47 46 44 44 42 40 38 36 34 32 31 31 30 27 25 16 7 5 7 11 9 8 22 29 26 25 22 21 23 24 19 17 22 21 10 7 7 3 3 1 3 4 5 2 3 6 5 4 2 1 2 2 1 3 1 0 4 7 4 1 3 0 3 7 5 6 8 9 10 13 13 13 11 12 17 18
23 26 28 32 33 30 29 34 41 47 48 47 45 44 44 43 43 40 38 36 35 33 32 32 31 29 23 14 8 6 6 12 9 9 22 27 27 26 22 21 24 25 22 17 18 20 16 13 11 6 2 0 3 6 7 4 4 8 4 3 1 1 2 1 1 4 1 1 3 6 5 2 5 0 6 7 6 8 10 10 10 12 11 12 12 10 13 17
24 26 29 31 34 31 28 36 44 47 47 47 45 44 44 43 43 41 38 36 35 33 33 33 32 30 20 8 6 5 5 12 11 11 21 26 27 24 21 22 24 26 24 18 15 20 21 15 14 7 0 2 4 5 6 5 5 6 5 4 2 3 3 3 3 3 1 2 5 6 4 3 3 5 7 4 7 7 9 11 9 10 9 10 10 9 10 15
26 27 30 32 33 32 30 36 44 47 47 47 46 45 44 44 43 41 39 36 34 34 34 33 32 29 18 4 4 6 6 11 11 13 22 27 24 21 21 22 23 25 25 24 20 20 20 14 14 9 1 2 3 4 6 8 5 4 3 3 1 2 3 5 3 1 1 2 3 3 2 5 9 10 5 4 9 8 8 9 9 8 8 8 8 8 9 13
28 28 30 32 33 34 35 36 38 42 45 45 45 44 44 44 43 42 39 37 34 34 34 34 32 25 14 3 3 9 9 10 12 17 24 27 21 17 19 18 18 20 23 25 22 20 18 13 11 7 2 2 4 7 8 8 3 2 2 2 3 3 5 5 2 4 3 1 2 3 3 5 9 11 5 6 10 11 10 9 9 8 7 7 8 9 9 12
30 30 31 32 34 36 37 37 38 39 41 45 45 43 43 43 43 41 39 37 35 35 34 32 29 18 7 1 3 10 12 11 14 21 25 27 23 17 17 19 17 19 21 21 19 19 17 11 8 4 0 2 3 6 6 5 3 1 3 3 1 4 5 6 2 7 6 1 3 5 3 5 8 10 6 7 9 10 11 9 9 8 8 8 7 8 8 10
32 32 32 33 36 38 41 40 41 41 41 45 45 42 43 43 42 41 39 37 35 35 32 26 21 13 4 2 5 10 11 10 13 18 23 26 27 21 19 20 18 19 18 16 17 17 14 8 5 3 1 1 3 4 4 4 4 3 2 3 2 4 3 3 2 5 5 2 1 3 2 4 5 7 4 7 9 9 9 9 10 9 9 9 8 8 8 8
33 34 34 35 37 41 45 42 42 43 42 45 45 43 43 42 42 41 39 39 36 33 28 21 17 10 2 3 7 8 9 12 14 18 23 23 25 28 23 15 12 16 14 13 15 13 8 5 2 2 2 1 3 3 3 4 4 4 1 2 3 4 3 2 3 5 4 3 4 4 3 5 6 6 3 5 9 8 9 9 10 9 8 8 7 8 8 8
35 36 36 37 39 44 47 44 41 41 42 47 46 44 45 44 44 41 37 37 31 25 19 15 15 7 3 7 8 7 12 17 15 18 23 19 24 31 23 11 9 13 10 7 9 7 4 3 2 2 1 4 6 5 5 5 4 3 2 2 2 2 2 4 3 3 5 3 5 5 4 9 9 6 5 4 6 8 9 9 8 9 9 8 8 8 9 9
37 38 38 39 41 46 49 47 42 40 44 47 46 48 46 40 36 33 33 32 20 11 8 9 13 5 4 11 9 9 18 22 14 16 21 18 22 26 18 13 10 10 8 4 5 6 4 4 3 4 6 9 9 7 7 7 6 6 5 4 4 4 4 4 4 4 4 5 5 7 7 10 10 7 6 6 2 5 8 6 5 7 8 8 7 8 9 10
39 40 42 41 43 45 49 51 44 42 42 44 52 45 31 22 15 12 16 20 11 3 5 11 12 2 4 10 13 16 18 18 10 10 20 19 22 21 11 9 8 4 6 7 6 5 6 6 7 9 10 10 8 6 9 9 7 5 2 2 4 5 4 4 3 5 1 5 6 7 8 9 7 8 7 4 2 4 7 6 7 7 7 8 8 9 10 11
41 43 44 44 46 46 51 53 47 46 44 51 53 28 14 16 10 11 14 10 5 2 6 17 12 3 4 8 19 25 15 8 6 7 18 21 22 18 6 6 9 4 5 8 8 5 6 9 9 10 9 7 6 6 8 9 7 4 2 2 4 4 5 5 3 5 2 4 5 3 5 9 8 9 6 1 2 8 9 8 9 9 9 8 8 10 10 9
43 46 48 48 49 49 52 53 51 52 50 54 41 11 11 12 5 21 22 8 4 5 6 18 10 5 5 8 17 25 14 5 6 8 17 18 15 12 5 7 10 7 7 8 8 6 7 9 9 9 7 6 6 5 7 8 7 6 3 2 3 4 3 4 3 4 2 2 4 1 4 9 9 9 6 4 7 8 8 10 10 10 10 9 9 10 10 9
47 50 51 50 50 51 53 53 55 54 46 44 28 6 10 11 16 33 22 8 5 5 5 12 7 4 5 6 9 16 13 8 8 8 16 17 9 8 9 9 10 9 9 10 10 9 7 7 9 9 7 8 7 6 6 6 6 5 3 3 3 3 3 3 3 2 2 1 1 2 3 7 7 5 6 8 9 6 6 9 10 9 10 11 11 10 11 11
51 53 53 53 52 51 55 56 56 52 44 38 24 11 17 27 39 41 18 6 4 4 4 7 6 3 4 5 5 8 9 7 6 8 17 16 7 6 9 11 11 9 10 12 12 10 5 6 10 11 9 10 8 7 7 5 5 4 5 5 3 4 5 4 3 1 2 2 1 3 2 5 5 5 7 8 5 5 6 8 9 10 10 9 8 9 10 11
56 57 56 55 52 54 61 55 47 49 44 31 19 19 30 39 43 36 16 4 2 4 3 5 2 3 7 7 5 3 3 3 3 7 15 16 10 7 7 8 9 10 13 13 11 8 6 7 13 13 10 9 9 8 7 6 5 5 5 8 8 9 8 4 5 5 3 3 2 0 1 5 5 4 9 6 3 5 6 7 11 12 10 8 8 10 9 9
62 60 59 58 55 63 59 35 35 47 35 18 21 32 39 41 39 29 13 4 2 1 5 7 2 6 11 7 6 6 5 1 4 3 13 15 10 7 6 6 3 8 14 11 6 4 5 6 12 14 10 10 9 8 8 8 5 5 5 7 7 7 7 7 7 5 2 3 3 1 4 5 6 4 8 5 4 8 6 7 11 11 9 9 10 10 8 9
65 62 63 59 58 66 44 18 34 43 21 18 35 42 41 43 37 19 7 2 3 3 4 3 1 9 13 9 12 8 3 4 2 5 11 13 8 3 6 7 4 6 8 6 3 3 6 7 9 13 11 9 8 6 8 8 7 5 4 7 8 8 8 8 9 5 3 3 3 4 3 3 4 5 7 3 3 8 8 9 12 11 11 10 10 10 10 10
66 65 65 58 63 67 42 31 42 30 22 37 46 46 46 44 30 10 5 4 4 5 5 1 3 11 10 11 15 5 1 10 7 6 10 11 7 1 4 9 7 9 7 7 7 3 4 10 10 13 10 7 7 6 7 9 6 6 4 7 7 7 7 7 7 4 1 2 2 4 2 2 5 6 6 2 2 7 8 10 12 12 12 11 10 11 11 10
68 68 65 63 69 60 42 47 43 24 35 52 48 49 47 32 16 3 2 5 2 4 6 5 7 8 7 12 13 2 3 6 5 4 5 7 7 1 4 7 6 10 4 3 8 2 2 7 8 11 9 6 7 6 7 10 6 4 6 6 5 5 5 4 5 4 3 1 5 6 2 2 5 6 4 2 2 6 8 8 9 10 10 10 10 11 10 8
72 69 68 70 62 42 34 38 33 32 47 51 47 51 39 16 8 5 6 6 4 3 4 5 7 8 11 13 9 3 4 3 3 7 4 3 4 1 2 3 5 7 2 4 4 3 2 0 1 5 6 5 7 4 4 7 6 6 7 6 6 5 4 3 2 4 3 2 6 7 3 2 3 5 4 4 4 6 6 7 8 7 7 8 9 8 7 6
75 70 72 71 54 40 31 20 27 46 51 48 47 41 22 4 3 7 7 5 5 4 5 6 6 9 15 15 9 6 5 3 6 12 9 4 4 3 2 3 3 4 3 3 2 3 4 2 1 1 2 2 5 4 2 1 4 6 5 4 4 3 4 3 4 3 2 5 6 5 2 3 3 5 5 5 6 6 6 7 8 8 8 7 7 6 7 6
76 73 74 68 53 45 34 26 43 58 54 50 40 21 9 4 2 5 5 5 6 6 7 11 12 13 16 15 10 7 5 3 7 13 12 8 7 7 7 7 6 5 6 7 4 2 2 1 2 2 1 3 6 4 2 2 1 4 4 6 5 1 2 0 3 1 3 5 4 2 1 2 5 7 8 9 11 9 8 8 8 8 8 7 6 6 6 5
76 74 72 63 49 41 37 42 55 58 55 49 27 7 6 7 6 6 7 5 7 10 10 13 15 16 17 13 8 6 5 2 7 10 10 9 7 6 6 6 7 6 5 6 5 3 1 4 3 0 1 2 5 6 4 2 1 3 6 6 4 3 2 3 4 2 3 4 3 2 2 2 4 6 10 14 14 8 5 9 9 8 8 7 6 5 5 5
76 74 66 54 43 41 44 50 55 57 51 34 14 7 9 8 6 8 8 6 7 11 12 13 16 16 13 10 8 7 4 2 7 8 7 8 8 8 7 7 8 5 5 5 5 6 6 4 3 4 1 1 2 3 5 7 4 3 4 5 5 5 4 4 4 3 4 3 2 2 1 3 3 4 7 10 10 7 4 7 6 6 7 5 4 4 4 5
74 69 57 42 34 44 54 55 58 59 41 18 9 9 9 8 7 7 8 6 7 11 12 15 17 15 10 6 7 8 4 3 6 6 6 8 9 10 9 9 9 5 7 8 4 5 8 4 3 2 1 3 3 3 2 7 5 3 2 5 4 5 5 3 3 5 4 1 1 2 3 4 4 6 7 5 7 7 5 5 4 4 5 2 4 5 5 5
64 54 43 33 32 48 58 56 60 57 32 12 11 9 7 9 8 10 10 10 13 16 17 16 14 13 10 4 6 9 4 4 6 5 4 6 7 9 9 7 7 7 8 9 3 3 7 2 4 2 1 2 3 2 1 3 5 2 3 4 5 3 6 4 2 1 3 1 3 1 3 5 3 6 8 5 6 8 5 5 4 4 4 2 5 6 5 5
45 34 27 26 36 52 58 58 58 47 24 11 12 11 9 8 6 9 11 13 18 21 20 15 10 12 13 7 9 13 8 5 7 6 6 6 5 8 9 6 6 9 9 6 3 3 5 1 4 1 2 1 1 2 1 1 4 5 4 6 3 2 4 3 2 2 3 2 4 0 4 4 1 3 6 7 6 9 7 6 5 5 4 5 6 6 6 6
31 23 15 22 44 54 55 60 51 29 13 9 11 10 7 5 3 5 9 14 18 19 16 12 8 10 13 12 12 15 14 11 10 8 7 7 5 9 14 9 5 9 8 5 4 2 4 3 3 1 2 2 3 3 1 2 1 4 4 4 4 2 2 1 3 1 1 3 4 3 3 3 3 4 4 5 7 9 8 6 5 7 7 7 7 7 7 5
24 15 6 23 50 56 56 56 37 15 9 10 11 8 5 4 3 7 13 17 18 17 14 11 10 9 11 13 13 14 14 12 13 10 7 7 6 7 15 10 4 8 9 6 6 3 4 4 2 2 1 1 3 1 5 2 1 2 2 2 2 2 4 3 3 3 3 3 3 3 2 3 5 6 5 8 9 8 8 6 7 10 10 8 8 8 7 6
14 7 4 26 48 55 56 42 20 9 10 11 10 7 6 5 5 11 18 20 15 10 10 14 14 11 11 11 12 13 10 8 13 10 5 7 4 4 10 10 7 9 7 5 5 3 3 3 3 1 2 1 2 2 6 6 3 2 2 4 2 1 2 2 1 3 4 3 3 2 2 5 6 5 8 10 10 8 7 6 8 9 8 8 9 8 7 7
8 7 5 27 47 54 46 22 8 9 8 10 10 4 4 4 6 13 18 18 11 2 6 15 16 13 13 11 11 11 8 6 11 9 3 7 6 3 7 9 10 10 6 4 5 4 2 3 4 3 1 3 4 4 4 5 4 4 5 7 7 3 4 2 3 2 2 2 4 4 3 7 6 4 7 10 8 6 5 6 8 8 8 9 8 8 7 7
6 8 9 32 53 49 29 9 6 10 6 8 7 2 4 5 8 15 16 15 9 2 6 11 12 13 12 12 12 11 8 7 10 10 4 7 9 5 6 9 12 12 8 4 4 4 3 4 4 2 3 5 6 5 3 4 1 2 4 5 7 7 6 5 6 4 2 2 2 3 3 7 6 5 6 7 6 5 5 6 7 8 7 8 7 6 6 6
5 9 17 40 58 41 17 7 8 8 5 5 2 1 3 6 10 14 13 12 9 4 7 8 10 12 10 9 12 12 10 7 8 10 4 3 6 5 7 13 14 13 8 4 4 4 3 4 4 1 2 3 5 5 1 2 1 3 4 1 3 5 4 5 6 4 4 4 3 2 4 6 6 4 4 6 5 5 5 5 7 7 6 6 6 6 6 5
6 9 12 32 50 35 13 10 12 10 7 8 6 3 1 4 10 14 14 13 9 8 10 9 11 13 11 11 14 16 15 8 7 9 4 4 6 3 8 15 16 14 10 7 9 6 3 3 4 4 2 3 4 4 3 2 2 2 3 1 2 2 4 3 2 3 2 4 6 5 5 6 6 4 3 5 6 5 6 5 6 6 6 5 5 5 6 5
9 7 5 14 26 19 6 5 10 13 13 15 14 8 3 3 7 12 16 11 4 8 10 8 10 11 10 13 13 15 17 8 5 7 3 3 4 0 6 16 17 15 11 8 10 7 4 4 5 6 6 5 6 6 5 4 2 2 3 3 4 5 6 4 2 2 3 4 5 5 6 6 5 5 5 6 5 4 7 6 5 6 5 4 4 5 6 5
9 5 5 5 6 7 3 1 5 10 12 15 13 7 6 7 4 6 12 8 3 7 8 6 9 9 9 14 12 11 14 4 3 8 7 7 5 2 4 13 14 12 9 11 13 8 4 3 5 8 10 10 9 6 6 10 8 8 9 7 7 7 6 5 3 4 5 3 3 7 9 8 7 6 6 6 5 5 6 6 6 6 5 4 4 5 5 5
7 6 8 7 4 6 2 2 5 9 10 12 9 6 9 11 7 5 5 4 5 9 7 6 12 12 12 17 12 11 14 4 4 10 9 6 3 1 1 5 7 7 8 12 12 7 5 4 8 10 8 6 6 5 7 13 13 15 13 10 9 8 8 7 7 8 5 3 7 12 11 10 9 8 8 8 7 6 6 6 6 5 4 4 4 5 5 6
4 6 8 5 5 10 8 7 12 14 14 13 6 4 9 13 14 11 4 1 5 10 7 6 14 18 20 20 14 11 12 6 4 9 7 4 4 3 3 2 1 2 5 9 7 5 5 7 8 8 5 3 5 7 9 11 11 10 11 12 10 9 10 12 14 12 8 7 15 14 9 12 11 8 9 10 9 7 6 6 4 3 4 5 6 6 7 7
3 4 2 3 2 9 11 14 20 20 19 15 6 5 11 15 16 10 3 4 8 8 8 11 16 20 22 21 15 12 14 11 8 8 7 7 8 6 4 3 1 1 3 7 5 3 4 5 5 7 5 3 5 8 10 11 8 7 10 12 11 12 15 17 18 16 12 12 16 7 6 14 11 7 9 9 7 6 4 1 1 4 6 7 8 8 8 9
3 3 4 3 2 5 7 10 17 17 14 13 7 6 10 16 17 10 3 9 14 9 8 16 19 19 21 21 16 15 20 20 16 13 11 10 8 6 6 5 4 2 3 6 4 0 2 4 3 6 5 3 5 6 6 6 7 8 9 10 12 15 17 17 15 10 6 11 14 7 10 15 7 6 8 7 4 2 1 2 5 7 7 7 8 8 8 9
2 1 4 5 3 6 10 11 12 12 10 9 7 6 9 14 16 10 1 3 11 11 10 17 19 15 15 18 17 18 21 20 19 20 19 18 14 10 6 5 8 8 4 5 4 2 2 2 2 5 5 5 5 6 4 2 4 4 8 13 16 16 14 12 10 8 9 13 13 10 13 12 2 6 7 5 5 5 5 7 8 7 6 7 7 8 9 10
2 1 3 5 4 4 10 11 10 12 11 9 7 4 6 11 12 11 6 2 2 6 11 17 18 12 12 17 18 17 15 13 13 13 12 13 12 7 5 9 14 14 9 7 4 3 6 5 2 5 6 4 2 7 7 5 4 5 11 15 18 15 12 9 8 11 15 13 10 11 13 8 4 6 5 4 5 7 8 9 8 8 7 7 8 9 10 11
Wind_Direction
232 219 211 205 201 196 193 192 189 188 188 186 186 187 186 183 181 180 179 180 180 178 179 180 179 181 178 175 175 169 162 158 155 167 180 186 179 169 168 169 132 114 126 101 81 83 46 29 15 4 1 3 22 331 331 328 8 69 82 133 226 216 204 201 178 199 176 172 190 207 199 131 142 175 142 55 56 84 67 28 2 7 30 145 145 151 159 166
238 225 213 206 203 197 192 191 190 188 188 187 187 188 187 185 183 181 180 181 181 180 180 180 180 180 180 179 177 175 168 158 163 182 186 177 172 171 175 178 149 131 130 99 86 80 57 31 2 353 3 6 350 333 335 311 52 112 128 148 222 209 210 213 184 199 175 163 172 175 179 147 153 167 134 110 116 113 84 17 353 41 55 96 130 145 157 166
232 229 219 209 205 201 193 188 188 189 188 187 187 188 188 187 184 181 181 182 182 182 182 182 181 179 181 184 181 183 171 139 181 222 192 172 172 174 173 181 169 153 118 106 105 89 69 62 7 336 17 24 338 325 332 302 281 189 146 203 242 221 239 251 192 204 204 159 153 166 177 157 174 174 128 133 146 142 136 160 77 96 126 119 135 148 157 167
222 224 222 214 206 203 195 188 187 188 188 187 187 188 188 187 184 182 182 182 183 183 182 182 181 177 178 181 182 182 160 89 242 209 189 176 176 179 172 176 170 161 126 114 117 103 74 55 34 308 51 30 315 321 297 265 257 219 158 196 235 235 274 271 243 226 221 163 151 151 138 152 196 190 131 135 131 202 213 202 180 166 163 146 147 156 162 169
216 216 220 217 209 206 198 190 188 187 187 187 186 188 188 187 185 183 183 183 183 183 182 181 179 175 170 170 173 170 146 69 226 193 192 183 177 181 174 173 172 170 147 127 121 103 79 49 40 19 43 44 325 333 264 250 160 200 219 211 225 196 245 273 287 208 167 140 132 136 144 162 175 139 153 149 149 217 216 210 190 166 162 159 159 161 166 173
215 218 225 227 220 215 203 190 187 186 187 187 187 187 187 186 185 183 183 183 182 183 183 181 178 172 166 163 162 160 159 197 225 184 190 183 177 177 171 172 173 171 160 144 130 103 85 50 40 58 47 48 314 293 265 274 172 217 263 243 240 202 214 291 335 227 155 134 146 156 164 146 133 155 184 167 179 221 210 189 178 167 164 160 157 160 168 177
214 223 227 227 228 225 212 191 184 186 186 187 187 187 187 185 184 183 183 183 182 183 181 181 177 171 163 155 153 155 177 225 310 184 184 179 176 173 170 171 170 171 165 149 131 104 98 76 62 112 75 41 298 277 276 293 225 205 254 275 270 205 213 289 353 287 194 166 172 149 133 142 154 166 167 190 215 236 234 169 161 159 156 153 156 166 174 180
213 222 220 219 226 229 220 193 183 186 186 187 187 185 186 184 183 183 183 183 182 182 181 179 175 171 166 155 143 139 202 215 252 187 179 176 175 172 172 169 170 175 167 157 140 121 113 93 100 147 74 22 320 299 294 312 285 203 233 258 282 238 251 317 7 310 195 191 154 122 133 167 182 163 150 209 230 249 40 143 148 147 150 158 167 173 177 182
217 217 215 217 224 228 223 196 182 185 185 185 186 185 185 183 182 182 183 183 181 182 179 177 175 172 170 157 134 155 199 199 206 192 178 177 177 175 175 168 172 175 158 152 145 135 134 118 125 71 64 331 305 304 307 323 281 219 222 225 226 293 319 355 14 155 170 204 150 130 128 196 228 187 166 219 217 121 89 133 145 146 157 171 176 178 180 184
221 217 213 216 224 225 225 206 184 182 185 184 184 184 183 181 181 181 181 182 182 181 177 176 175 169 165 152 137 184 193 191 197 187 180 181 175 171 175 170 171 172 149 135 141 139 138 125 116 94 97 224 281 303 315 298 266 278 243 201 180 215 351 19 331 258 193 252 178 143 135 245 303 346 194 231 201 121 111 137 153 156 167 178 181 186 185 187
225 221 214 213 222 221 223 218 193 182 183 182 182 182 181 180 179 179 180 181 182 179 177 175 172 168 162 150 163 193 176 177 181 177 183 183 175 172 175 171 170 167 147 129 139 142 137 122 105 98 122 348 314 313 304 250 283 301 229 147 62 13 343 1 227 258 239 110 180 131 120 318 352 337 218 221 174 138 133 148 167 169 175 182 183 190 190 195
229 222 217 214 218 218 220 216 195 183 184 182 182 181 179 179 177 177 177 178 179 177 174 172 172 169 156 145 184 182 157 173 174 173 182 182 178 180 179 174 174 171 156 138 137 143 140 119 100 105 141 359 338 314 295 277 313 303 201 164 315 7 323 239 188 251 244 161 190 132 91 317 281 229 238 196 151 139 139 155 176 182 183 185 186 191 196 202
231 225 221 214 214 214 212 205 189 183 184 181 181 180 177 177 174 173 174 174 174 172 169 169 171 167 153 146 197 172 165 168 174 178 180 181 181 182 180 174 173 176 169 153 146 148 140 114 111 128 148 3 309 279 296 311 317 297 236 176 150 42 294 241 185 197 194 193 209 154 181 265 242 235 242 162 148 134 144 169 183 188 190 190 192 195 204 204
233 229 222 215 213 208 202 200 191 182 182 180 179 178 175 173 171 170 170 169 168 165 165 166 166 161 153 160 174 181 176 151 171 184 181 183 179 171 172 167 163 168 164 151 144 146 136 104 106 121 119 169 262 286 306 315 302 270 247 188 145 162 255 264 186 148 167 221 69 118 208 250 243 239 232 179 162 150 165 185 188 193 196 196 200 201 209 206
232 230 224 216 211 203 194 197 197 187 183 181 176 174 171 169 168 167 166 165 164 164 161 161 162 152 143 228 180 185 179 155 175 184 183 184 173 162 163 157 155 160 153 143 138 137 130 103 99 106 92 204 282 296 304 311 314 355 185 236 226 170 257 294 208 164 166 218 78 117 208 263 255 251 239 188 177 168 174 187 192 198 200 198 205 206 213 216
229 228 225 216 209 200 191 193 198 192 186 180 174 170 166 164 163 163 163 160 159 161 155 155 160 148 134 183 157 171 174 169 184 184 181 183 175 163 156 149 149 157 147 135 138 135 121 102 99 110 71 307 287 274 298 309 310 344 142 212 222 173 241 294 258 212 174 147 138 146 200 250 266 281 268 180 181 182 178 191 198 201 206 200 203 208 212 219
227 226 223 215 209 198 190 191 193 191 186 176 169 164 160 160 160 158 158 155 152 152 149 149 155 145 117 137 153 174 173 170 182 183 178 181 176 161 150 141 143 152 137 124 142 137 112 105 118 118 111 241 256 236 269 271 268 317 27 189 221 186 187 211 274 263 181 171 208 185 206 243 266 301 295 187 179 182 187 198 203 205 211 207 203 209 213 215
225 224 220 214 208 196 190 188 189 190 182 171 166 160 156 157 155 149 144 141 138 139 139 140 145 149 224 182 165 163 163 167 174 179 175 176 173 163 152 140 136 139 123 112 143 139 107 100 104 105 152 215 230 209 208 234 217 225 216 180 231 225 198 206 240 234 174 199 220 184 229 257 264 295 294 239 181 183 204 204 206 211 212 213 208 208 213 214
224 223 218 213 206 194 186 183 187 189 178 167 158 148 142 142 142 136 135 136 135 139 146 159 161 167 198 171 150 135 158 167 168 172 170 166 166 160 146 133 132 138 137 146 164 151 137 114 125 179 200 205 215 203 198 217 193 186 195 169 172 198 234 226 233 260 180 183 223 194 216 243 251 272 270 263 211 194 228 232 222 223 218 220 216 214 217 214
224 220 215 212 206 194 185 182 184 186 177 155 140 133 130 133 126 123 143 150 159 169 142 166 172 125 92 141 130 124 144 157 155 174 172 164 153 143 127 123 127 150 158 158 166 155 150 165 189 196 197 204 212 197 198 216 202 183 173 170 191 192 236 250 247 299 217 175 229 209 221 248 256 264 254 257 276 233 243 243 236 234 226 224 220 221 220 218
221 216 214 210 202 192 185 181 180 181 175 152 141 138 149 157 151 161 164 153 149 40 131 162 165 77 88 135 137 132 129 142 145 182 177 163 147 142 143 142 141 175 177 151 150 145 163 192 204 194 192 210 222 206 205 222 220 221 227 239 255 210 232 265 250 302 323 184 241 222 238 262 257 255 257 190 214 234 230 223 231 233 230 230 225 226 225 229
216 213 211 207 200 190 181 177 175 174 169 156 152 155 164 167 155 150 147 118 96 36 116 158 152 39 83 129 149 144 130 139 154 180 180 164 153 159 166 155 155 176 176 153 150 161 189 207 199 185 194 218 234 228 217 229 225 223 216 184 256 239 241 283 276 311 359 190 255 245 218 253 255 251 259 225 216 234 226 215 223 224 225 228 222 227 230 233
211 208 206 204 201 188 177 174 170 168 167 161 158 158 157 148 130 134 123 75 108 52 81 155 147 40 88 124 161 154 143 157 162 182 181 165 166 171 154 162 170 171 176 174 170 175 197 202 182 180 200 214 231 237 225 244 240 215 181 159 236 242 194 247 258 298 27 130 214 145 196 265 274 277 273 246 227 240 236 223 231 227 222 225 219 221 221 220
206 204 203 201 197 186 176 170 164 163 168 165 157 151 143 137 139 137 112 63 116 40 67 140 129 95 121 123 148 165 163 164 153 177 181 168 157 159 159 168 169 171 188 189 176 177 201 176 164 182 200 202 219 232 217 228 248 233 193 172 206 216 195 208 197 130 9 2 95 104 3 300 271 264 264 253 230 242 244 228 241 244 234 240 245 238 226 218
200 200 199 195 192 183 172 164 162 164 166 164 153 147 144 144 148 141 114 76 85 23 98 131 115 152 137 108 101 125 128 144 155 174 179 175 159 148 164 171 172 183 188 188 175 176 214 184 167 186 197 190 208 228 211 195 225 254 218 197 207 204 191 171 132 95 47 317 292 175 307 290 291 267 248 257 271 250 243 226 236 246 241 242 251 245 235 231
195 196 193 191 187 175 167 163 167 163 160 165 156 150 150 151 154 143 107 50 113 123 172 162 191 168 148 124 105 84 66 205 283 216 175 183 180 155 165 170 171 187 180 181 179 175 211 185 171 183 187 187 205 228 211 178 187 249 230 196 195 180 158 145 144 120 123 229 292 67 180 256 315 296 249 263 279 256 255 246 243 247 240 231 233 236 233 233
191 191 188 188 182 170 164 157 161 159 162 172 156 152 155 155 159 154 95 60 181 154 158 167 197 168 160 148 142 129 106 151 312 270 191 188 199 165 169 175 153 175 171 160 194 208 180 172 177 179 179 189 198 223 216 170 165 238 231 162 148 150 159 162 160 153 178 205 329 23 133 230 288 272 263 278 276 271 271 257 251 246 238 233 231 235 232 228
187 185 183 183 176 170 164 151 155 166 177 164 153 154 159 158 163 167 110 157 184 130 138 176 154 157 147 138 151 160 100 135 140 227 201 186 201 156 172 195 174 166 169 164 190 246 167 177 187 177 177 192 192 218 208 167 174 232 200 147 141 148 160 157 147 138 87 132 293 306 132 192 266 275 297 328 264 276 267 248 247 243 237 234 232 234 233 231
182 180 180 178 174 171 166 158 161 170 162 155 151 157 160 156 153 138 161 178 140 119 144 139 143 153 138 145 165 178 62 134 147 176 175 189 211 217 170 197 162 152 165 168 177 216 201 190 185 171 178 192 192 215 193 172 196 198 136 109 84 79 89 101 118 111 64 103 234 251 197 184 268 282 305 325 255 256 257 252 246 241 239 233 231 235 235 236
177 176 177 175 172 168 161 160 160 153 152 152 153 156 156 149 130 145 196 182 122 127 146 147 164 163 151 155 169 160 131 148 133 139 158 196 196 229 147 135 106 131 84 41 143 219 296 269 142 159 180 188 178 181 175 185 185 133 110 83 67 45 41 52 61 93 94 272 248 245 227 183 266 281 249 228 227 220 235 266 267 264 261 242 234 233 228 227
174 174 174 172 170 162 154 153 151 149 150 151 149 149 149 136 135 165 181 154 117 132 141 150 152 143 155 164 167 170 160 139 143 157 173 184 168 188 165 131 106 118 120 103 152 309 4 75 182 179 181 146 125 113 76 188 159 118 107 106 92 9 10 28 359 46 152 252 258 250 231 171 219 263 245 240 255 235 218 246 263 270 273 256 245 238 219 208
171 171 172 171 169 163 160 157 154 152 151 148 144 142 139 137 190 175 157 143 150 167 162 157 158 157 164 167 162 158 137 130 171 168 171 177 180 191 187 182 172 150 170 180 168 5 17 201 265 325 220 148 126 126 61 34 98 103 121 128 120 15 20 94 286 289 213 245 261 248 212 192 229 251 258 263 266 255 224 225 244 259 270 263 245 234 219 201
168 168 170 171 168 165 162 154 152 152 149 145 139 130 140 157 190 166 149 173 170 166 164 157 161 161 158 159 161 146 110 128 182 172 170 173 176 202 218 207 180 156 169 171 137 129 249 293 295 348 265 182 158 170 164 155 158 137 147 144 138 130 120 209 247 286 252 252 271 262 235 253 267 261 252 250 258 267 235 230 238 244 256 251 227 221 222 215
166 166 168 170 168 164 157 150 151 151 147 140 130 141 155 165 176 154 159 187 157 148 154 149 148 149 152 158 161 153 130 157 178 163 160 165 173 200 221 220 196 144 119 151 158 168 184 238 232 176 187 169 177 202 166 147 152 180 164 140 148 158 158 199 218 211 229 256 285 278 234 190 202 244 238 236 262 292 272 256 259 253 258 245 217 219 221 226
163 164 165 164 161 157 153 150 152 150 144 134 134 156 170 163 160 167 170 163 139 138 141 139 137 142 157 159 157 163 145 145 170 160 165 180 186 192 196 205 199 152 137 167 185 175 175 212 283 260 191 136 156 268 145 131 156 207 138 123 173 182 151 152 187 183 175 162 257 235 234 210 208 269 270 254 275 284 290 314 314 275 278 250 211 221 217 230
158 160 161 155 151 153 151 151 152 149 143 138 149 170 193 173 170 182 170 153 154 146 137 142 142 147 161 149 159 176 155 128 159 162 186 197 205 204 197 198 194 178 167 162 154 165 165 209 320 334 21 101 142 230 322 146 174 164 125 176 215 165 119 121 196 163 98 176 250 189 245 286 319 290 293 324 298 280 296 318 298 271 283 251 225 226 225 230
151 152 153 149 153 154 152 152 151 147 143 145 162 178 189 189 186 176 163 149 151 145 139 149 156 157 162 154 171 180 162 143 170 179 186 188 211 209 200 212 198 186 186 161 153 199 155 142 322 34 154 266 136 137 356 350 140 128 166 197 191 110 95 113 168 10 50 222 273 250 219 276 326 261 311 338 293 274 273 265 270 281 268 241 237 233 233 233
141 140 140 148 155 155 153 152 149 144 141 153 176 182 175 190 183 148 150 140 141 144 143 152 162 165 167 161 173 178 162 159 179 188 184 185 225 204 186 202 201 181 192 158 144 202 138 132 311 354 173 285 10 97 156 325 98 139 178 169 129 154 208 147 160 175 170 221 281 305 249 251 201 216 290 288 245 252 258 242 240 252 237 227 238 239 241 241
137 133 128 154 155 155 153 150 145 139 148 162 184 190 170 190 186 150 151 144 143 149 150 157 160 163 172 166 164 173 172 171 173 179 190 191 232 215 182 186 186 178 189 157 148 192 131 133 244 309 283 297 14 98 181 205 3 46 96 131 116 153 179 179 165 161 174 204 246 297 308 259 227 216 220 234 235 234 238 233 226 232 224 216 226 228 227 222
143 121 127 157 154 153 150 145 142 148 161 173 186 187 170 181 178 161 158 152 149 155 157 162 159 154 166 166 159 169 174 171 171 180 208 189 205 241 192 182 169 172 177 137 141 170 122 121 176 281 338 153 176 217 186 179 172 123 131 174 193 67 132 164 163 128 136 163 193 234 288 263 247 214 198 224 241 231 218 222 235 239 228 218 220 219 214 207
151 117 137 158 150 148 146 139 147 160 168 184 180 174 172 161 148 161 165 156 148 130 149 159 161 156 159 159 161 170 161 153 174 180 206 191 186 231 206 177 154 155 149 119 144 164 142 110 137 160 189 182 224 251 197 187 189 176 183 184 183 166 124 150 234 209 136 168 177 172 239 265 255 206 201 224 241 244 221 215 240 250 234 226 223 214 210 204
149 132 140 153 148 145 143 136 164 168 185 185 168 132 152 140 145 162 168 159 147 100 134 155 161 155 158 161 160 165 156 150 178 182 186 195 187 196 193 157 145 155 152 140 169 163 123 101 110 158 210 207 244 264 195 181 211 238 229 196 181 181 153 163 208 219 198 204 152 139 222 269 261 213 210 230 244 252 229 211 237 254 242 233 226 208 205 204
129 130 137 152 152 147 142 148 165 177 187 167 151 338 145 147 160 164 166 166 159 137 142 154 158 155 163 164 151 156 162 157 184 185 161 172 192 209 185 157 149 157 152 146 178 158 106 101 104 81 303 299 301 315 342 131 114 255 252 193 179 200 164 158 185 177 179 192 157 164 240 268 272 247 226 244 259 264 250 221 227 251 257 236 218 200 196 193
116 121 131 155 157 154 150 162 169 177 170 159 181 221 163 153 169 167 169 173 167 151 153 158 164 163 163 161 157 166 170 166 191 190 153 158 191 205 175 167 159 163 175 185 180 173 161 142 120 106 42 359 334 316 290 212 166 220 242 247 222 177 101 109 141 114 199 213 170 178 235 252 270 295 282 269 280 280 269 243 219 241 258 234 208 190 184 176
123 118 120 157 163 163 163 167 168 169 166 168 181 196 175 160 185 179 171 172 166 146 148 153 158 151 146 154 160 169 171 164 171 179 147 150 178 358 176 178 175 178 187 171 154 152 157 161 147 142 157 188 203 217 217 187 161 215 216 203 201 172 149 160 139 127 235 234 162 179 233 247 271 299 289 276 277 266 268 263 238 241 243 216 192 181 177 171
133 126 128 132 157 173 177 40 147 159 163 168 177 188 166 154 191 196 170 172 189 136 124 128 135 120 134 152 149 166 176 150 98 164 164 157 168 315 198 185 186 184 163 138 142 139 122 164 189 185 194 198 193 196 163 138 153 205 200 179 185 189 172 150 129 179 204 194 185 220 232 235 246 253 259 272 258 239 257 263 250 248 239 205 179 173 174 174
131 141 148 134 137 172 182 29 133 156 169 174 174 177 170 157 159 183 179 195 189 143 111 122 142 138 152 156 148 168 176 136 86 159 162 153 154 13 59 171 183 174 139 142 156 139 115 192 205 199 214 204 163 165 160 155 178 199 189 178 186 180 160 162 201 211 160 126 239 237 226 229 232 223 236 258 253 246 256 255 252 247 225 191 162 159 167 172
121 142 159 144 146 173 185 178 171 170 173 179 177 153 166 163 162 174 191 214 172 151 123 136 162 161 162 161 154 161 166 146 130 157 152 141 141 99 57 72 194 197 145 156 171 141 143 200 202 183 202 209 155 156 164 172 187 187 178 183 182 171 172 190 216 214 162 184 237 236 224 237 236 211 220 234 235 244 252 251 255 223 187 174 164 168 176 181
108 118 148 16 88 174 175 168 170 171 172 177 179 162 171 171 168 175 176 143 162 167 148 155 170 168 163 163 155 153 166 167 167 176 166 152 152 140 121 123 252 302 129 151 174 168 166 197 184 152 157 209 192 175 172 173 171 170 185 189 176 178 193 202 217 217 196 220 248 265 282 266 248 200 216 231 229 242 266 287 209 194 197 190 180 183 188 190
117 137 143 69 74 146 127 139 160 167 173 176 177 183 180 174 170 171 180 163 165 175 167 161 168 168 164 165 161 167 181 177 169 171 158 143 157 166 160 170 172 132 124 150 165 247 194 196 159 126 132 221 219 190 178 173 166 174 193 198 191 196 205 212 220 217 209 247 262 285 286 274 256 167 207 228 194 167 221 235 222 222 219 199 188 194 195 199
75 170 134 112 114 134 134 143 156 164 177 183 185 191 184 181 174 159 146 191 164 166 170 159 157 159 162 169 174 179 185 178 167 167 162 159 170 176 170 170 154 140 142 160 153 125 147 165 75 107 147 235 223 168 149 92 110 173 207 208 204 203 207 214 213 192 197 227 243 250 256 261 206 151 199 207 154 162 212 234 240 247 229 195 195 204 201 207
24 40 94 96 80 121 147 150 155 172 184 183 180 181 173 181 178 155 139 345 68 142 153 147 145 147 162 179 188 184 177 166 154 157 158 154 155 148 136 152 155 153 158 161 150 137 146 146 129 145 173 239 219 144 135 96 99 232 232 208 202 205 202 202 208 208 209 212 215 229 238 232 165 169 188 165 161 193 219 225 235 246 226 194 201 210 211 218
Height
728 730 732 735 738 741 744 747 751 754 758 761 764 767 770 772 774 777 780 784 787 789 792 795 797 799 800 801 803 806 808 810 811 812 812 812 812 813 815 817 818 820 820 817 820 825 828 831 831 832 831 829 832 833 830 830 829 832 841 849 851 852 847 836 836 838 832 831 833 833 832 833 836 835 833 834 837 841 844 846 845 843 840 839 840 841 846 850
726 728 730 733 735 738 741 745 749 753 756 759 762 766 768 771 773 776 779 782 786 789 791 794 796 798 800 802 804 806 809 810 811 811 811 811 812 813 815 817 819 821 819 818 823 827 832 836 837 837 836 834 835 834 833 831 830 835 844 849 847 844 837 830 830 830 827 828 830 832 833 832 832 833 832 836 843 842 843 849 849 847 844 842 842 844 847 849
724 726 728 730 733 736 739 741 746 750 754 757 761 764 767 770 772 775 778 781 784 788 791 793 796 798 800 802 803 807 809 811 812 811 810 810 812 813 814 816 818 821 819 820 825 829 834 838 839 841 839 838 838 837 837 833 832 835 841 847 842 834 831 827 827 826 823 823 827 831 832 832 832 831 831 836 844 842 842 848 848 849 848 845 845 846 848 850
722 724 726 727 730 734 737 739 743 747 751 755 758 762 766 768 771 773 777 780 783 787 790 793 795 797 800 801 804 806 809 814 813 808 808 809 811 812 814 816 817 820 820 821 825 829 834 837 840 840 839 841 840 839 839 835 834 836 838 841 835 832 831 825 824 825 823 823 824 829 832 833 831 830 832 835 842 844 842 841 839 843 846 845 845 847 848 850
720 722 724 725 728 732 734 737 741 745 749 753 757 760 764 767 770 772 775 779 782 786 789 792 794 797 800 801 804 805 812 821 811 803 807 808 810 812 813 815 816 819 820 822 825 828 832 836 839 840 842 845 845 842 839 833 833 835 835 833 830 831 831 824 823 825 824 824 825 828 830 830 830 831 832 832 836 837 835 834 834 836 838 840 842 845 848 850
719 720 722 724 726 729 731 734 738 743 747 751 755 759 762 765 768 771 774 777 781 785 788 791 793 796 799 801 804 804 812 819 806 801 806 806 809 811 812 814 816 818 820 822 824 827 832 837 841 844 847 849 850 847 840 834 833 836 834 830 830 830 828 824 824 825 824 825 825 827 826 827 831 832 832 831 829 828 827 829 832 833 834 836 839 843 846 848
717 718 721 723 725 726 728 731 734 740 744 748 753 757 761 764 767 770 772 776 780 783 787 790 793 795 798 800 804 805 808 809 802 802 804 805 808 810 812 814 815 817 819 821 823 827 832 837 843 846 849 848 848 847 840 835 833 836 835 829 829 829 826 824 825 826 825 824 823 823 824 827 830 830 832 831 825 825 826 828 830 833 835 837 839 842 844 845
716 717 719 721 723 724 726 728 730 736 741 745 750 755 759 762 766 769 772 775 778 782 786 789 793 794 797 799 803 808 809 805 802 803 804 806 808 809 812 813 815 817 818 820 822 825 829 837 844 844 848 848 847 847 841 838 835 834 834 829 828 828 826 825 826 826 826 826 825 824 826 827 828 829 831 829 824 824 827 829 831 834 836 838 839 840 842 844
715 716 718 720 721 722 724 725 727 732 738 743 748 752 756 760 764 768 771 774 777 781 784 788 792 793 796 798 802 809 808 803 802 803 804 806 807 809 811 812 815 816 817 821 820 823 828 836 843 843 848 850 848 847 842 842 840 833 831 828 827 828 827 827 827 827 827 827 826 826 829 830 829 830 830 826 824 826 828 830 832 834 837 838 839 839 840 842
713 714 716 717 718 721 722 724 726 730 736 741 745 750 754 758 762 766 770 773 776 780 784 787 790 793 796 797 804 809 804 801 803 803 803 805 807 809 811 811 814 814 817 821 821 823 827 834 840 842 847 848 847 846 843 843 840 832 830 828 827 829 828 828 828 828 827 827 826 827 831 831 829 831 830 825 825 827 829 833 834 834 836 837 838 839 839 840
711 712 714 716 717 719 721 724 725 729 734 739 744 748 753 756 760 765 769 773 776 779 783 786 789 792 794 797 804 806 801 801 803 803 804 806 807 809 810 811 813 814 816 820 822 823 826 832 837 841 846 847 845 845 841 839 837 832 831 829 829 829 828 829 829 828 827 828 827 826 830 832 830 831 826 823 826 828 829 834 836 835 835 836 837 838 839 839
709 710 712 715 716 718 720 722 724 728 732 737 743 747 751 756 759 763 768 772 775 779 782 785 789 791 794 798 802 801 799 801 802 803 805 806 808 809 810 812 812 813 814 819 823 824 827 831 834 840 845 847 848 846 839 835 835 832 830 832 832 830 829 828 828 829 828 828 826 825 833 836 832 828 822 822 827 829 830 834 836 835 835 835 836 838 838 837
707 708 710 712 714 717 720 722 723 726 730 735 741 745 750 754 757 762 766 771 775 779 782 785 788 790 795 801 800 798 799 800 802 804 806 807 809 810 812 813 813 814 814 816 822 824 828 831 834 840 845 848 850 846 838 834 834 834 832 831 835 836 833 827 827 829 828 828 825 827 840 840 829 823 822 825 827 829 832 834 835 836 835 836 836 837 837 836
705 706 708 710 713 715 719 723 724 726 729 734 740 744 748 752 756 760 765 770 775 779 782 785 789 791 795 800 798 797 799 800 802 804 805 807 809 811 813 814 815 816 816 817 821 825 828 832 835 839 844 848 848 843 841 839 836 835 835 833 838 842 836 827 827 829 829 829 825 830 841 836 824 821 823 825 825 826 829 833 835 835 835 836 836 836 836 835
702 704 706 708 711 714 718 722 725 727 730 733 738 744 747 751 756 759 764 770 774 778 782 785 789 791 797 799 797 797 799 800 801 803 804 806 808 810 812 814 816 818 819 820 822 825 829 831 835 841 844 845 846 848 848 845 837 835 840 842 843 843 836 828 827 828 828 829 826 831 840 832 821 818 821 825 826 824 826 830 833 833 834 835 835 835 834 833
699 702 704 706 708 712 715 719 723 727 730 733 737 742 747 751 755 759 764 769 775 779 782 786 789 791 797 798 795 797 799 799 800 803 805 806 806 808 811 814 816 818 820 821 823 826 829 832 836 841 844 846 849 852 853 852 844 840 842 845 844 842 839 834 829 826 826 828 828 831 835 829 821 819 821 824 825 824 825 828 831 831 831 832 832 833 833 832
696 699 701 704 706 709 713 716 721 725 728 731 735 741 746 750 753 758 763 768 774 779 781 785 787 791 796 796 795 795 795 796 799 802 805 807 806 807 810 813 816 818 820 822 824 826 830 833 838 842 845 848 850 851 859 862 853 847 844 842 842 841 841 838 831 828 827 828 829 831 833 826 820 821 823 824 824 824 825 826 828 829 829 829 830 831 831 831
693 696 699 701 704 707 710 713 719 725 726 728 734 739 744 749 752 757 763 768 774 781 785 786 789 793 794 791 790 790 790 794 798 801 804 806 806 807 809 811 814 817 821 824 825 828 832 834 839 845 848 850 850 851 860 861 852 848 843 840 842 841 840 838 832 828 828 829 830 832 835 827 819 822 823 824 825 824 822 823 825 827 827 827 828 828 828 828
690 693 696 699 701 703 707 710 717 722 724 726 730 736 743 749 753 759 764 766 772 778 781 780 781 783 780 778 782 786 788 792 797 799 802 803 805 807 809 811 814 818 822 827 828 828 832 837 843 848 849 848 846 846 851 849 842 841 839 837 838 838 839 835 830 829 829 831 832 833 832 825 820 821 821 823 825 824 823 823 825 825 826 826 826 825 825 825
687 690 693 696 698 700 704 708 713 720 723 723 723 730 740 748 755 765 768 765 764 765 766 768 771 773 772 773 779 784 788 794 797 799 800 801 803 807 812 814 818 822 823 828 830 828 831 840 843 843 844 844 841 840 840 839 837 838 839 838 836 836 836 832 831 831 829 831 833 831 830 827 824 821 820 823 825 825 824 823 823 823 823 824 823 822 822 821
683 687 690 692 695 699 702 706 710 717 721 719 716 719 725 730 734 742 752 761 763 760 761 765 769 772 774 775 777 779 787 795 798 799 801 801 802 808 814 816 822 828 826 826 828 828 832 840 839 837 839 840 837 836 836 836 837 838 838 838 839 839 835 833 833 831 830 832 832 832 833 830 826 820 820 825 825 821 820 821 821 820 820 821 821 820 819 817
679 683 686 689 692 696 699 703 707 713 717 716 715 716 718 718 715 716 729 751 763 761 761 765 769 773 774 777 778 777 783 793 799 800 800 800 802 807 813 817 823 828 826 826 829 833 837 837 834 833 834 835 835 835 835 836 837 838 839 841 842 841 838 836 835 832 832 832 831 834 834 828 823 821 821 823 822 818 817 817 817 816 817 818 818 817 817 816
674 678 682 685 689 693 697 700 704 710 714 711 712 718 720 720 720 722 730 749 763 764 764 768 771 775 776 778 780 778 782 789 795 798 797 799 802 804 810 817 822 825 826 826 828 835 838 833 829 829 830 833 836 835 836 838 837 837 839 841 842 840 839 836 834 834 833 834 835 835 833 827 822 822 820 817 817 816 815 815 815 815 813 812 813 813 812 813
668 673 677 680 686 691 694 698 703 708 709 709 712 717 721 722 723 725 732 751 765 765 766 769 771 774 777 778 779 781 784 786 790 794 795 797 801 804 807 813 818 823 825 822 823 830 831 824 822 826 828 832 836 835 836 839 840 837 835 837 837 836 836 834 832 834 835 836 836 834 835 829 820 821 818 811 814 816 814 814 813 812 812 810 811 810 809 809
661 667 671 676 682 686 691 697 700 702 706 710 712 716 721 723 726 723 730 753 769 770 770 770 771 773 774 777 780 782 786 789 790 792 793 795 798 802 806 808 813 820 821 820 822 827 824 817 818 824 827 830 834 834 834 836 840 838 832 829 828 827 831 834 833 835 840 840 835 836 841 832 820 821 819 812 815 815 812 812 810 808 809 811 810 807 807 807
654 661 666 671 676 681 688 691 693 699 707 710 710 715 719 722 727 723 730 759 773 773 773 770 771 771 771 779 781 784 792 794 793 792 793 795 794 797 805 806 807 813 816 817 821 822 818 814 815 821 826 828 832 833 829 830 840 839 829 823 825 828 830 832 832 833 840 842 838 839 842 836 825 816 813 816 817 812 810 811 808 806 806 807 806 804 805 805
647 654 660 667 672 675 678 681 690 698 702 704 707 714 718 720 725 721 735 769 772 767 772 772 770 768 770 777 778 784 794 794 795 795 791 794 794 794 803 806 804 808 808 813 821 817 812 816 817 818 822 825 830 832 824 824 836 834 825 823 826 828 828 828 829 831 837 840 841 841 840 840 834 816 811 820 816 809 810 809 805 803 803 802 803 802 802 802
641 649 655 663 668 668 666 671 683 688 690 695 701 710 715 718 722 722 742 769 765 758 766 769 768 766 769 776 778 781 785 785 794 796 789 792 795 793 800 803 802 805 803 809 821 816 808 814 817 816 821 825 826 823 818 821 828 824 823 828 826 825 827 829 831 834 839 841 841 842 841 843 838 821 815 820 814 807 805 801 799 798 798 799 799 799 799 799
635 643 650 658 664 668 667 667 673 679 685 692 699 707 711 715 721 727 742 754 753 753 757 762 766 768 770 775 779 781 781 784 790 793 791 793 794 793 798 800 799 804 805 806 813 812 810 812 811 812 817 820 817 815 815 818 820 820 826 831 829 831 835 834 834 834 839 843 838 839 841 842 836 820 815 817 812 805 798 793 793 793 794 795 795 796 796 798
630 637 644 653 661 667 670 672 675 679 686 693 700 705 710 716 722 736 747 743 744 752 754 759 764 765 770 775 780 782 782 785 788 793 796 793 792 793 794 796 799 804 808 807 809 812 813 813 811 811 813 812 810 815 820 819 818 820 825 826 827 833 833 834 837 834 840 846 839 841 844 842 837 822 811 811 806 800 795 792 790 790 792 793 792 794 795 796
624 631 640 648 654 659 665 674 678 680 685 693 701 705 712 719 722 735 743 730 735 752 756 760 763 763 768 771 777 781 781 785 786 789 794 792 794 795 794 797 800 806 812 810 812 816 815 814 813 812 814 812 809 815 822 821 820 819 818 822 829 836 835 837 841 839 846 848 842 849 852 846 842 823 805 804 803 800 800 794 788 787 788 789 791 793 794 795
618 626 637 644 650 654 656 663 670 675 683 690 698 703 711 726 728 727 730 724 732 749 751 754 758 759 763 767 773 779 781 785 784 784 788 790 794 794 791 792 794 804 814 812 814 819 815 814 815 813 815 812 808 814 822 823 822 818 818 825 834 846 849 848 849 849 851 847 845 853 851 845 841 820 803 803 799 796 800 797 791 789 787 787 790 793 794 795
615 624 636 643 648 652 654 659 666 673 680 685 696 703 709 725 726 716 722 725 727 735 738 743 749 752 758 766 773 778 781 784 784 783 786 789 794 794 789 787 786 792 805 810 814 819 818 816 815 812 812 811 807 811 820 825 825 820 820 826 835 849 858 857 859 861 855 846 847 854 849 843 836 815 801 798 790 790 797 796 792 791 789 788 791 793 794 795
613 623 636 643 647 650 653 660 666 671 678 682 695 708 711 719 716 707 718 723 719 726 732 737 747 755 760 765 771 774 777 783 784 784 788 791 795 795 790 786 784 784 794 807 810 812 816 817 813 809 810 811 809 809 811 815 821 821 819 822 827 836 845 849 850 849 846 845 850 853 844 833 821 805 798 796 793 795 798 796 795 794 794 794 794 794 794 794
615 626 635 642 646 648 651 658 663 668 676 683 697 710 708 707 708 707 712 716 717 727 734 737 746 758 765 767 768 770 773 780 784 785 789 789 789 788 784 782 783 782 788 801 805 804 808 811 811 813 813 810 809 811 808 808 817 824 822 822 824 822 824 838 846 843 843 846 847 847 836 822 810 798 795 798 796 795 795 795 795 793 795 797 795 794 794 795
618 628 635 640 643 645 649 656 661 665 671 683 699 707 699 690 691 694 697 700 706 717 731 742 748 756 767 770 771 773 774 778 784 787 789 789 785 783 779 776 778 779 778 787 798 801 803 811 814 814 813 811 811 812 810 807 813 822 825 823 824 821 817 831 849 853 849 843 839 840 830 818 812 798 788 791 790 788 791 792 790 791 796 797 794 794 795 795
617 626 633 637 640 643 646 652 659 664 672 684 692 693 687 679 676 681 684 688 695 702 717 737 744 747 759 767 769 770 771 778 784 784 787 788 782 778 778 774 772 774 771 774 787 793 798 812 817 811 809 813 816 814 810 808 810 816 821 818 819 825 822 824 838 850 852 843 836 839 829 817 817 805 788 787 787 783 785 787 789 792 795 795 793 793 795 795
615 624 631 634 637 641 645 651 658 663 674 687 687 682 680 677 675 679 682 685 693 700 710 726 733 736 746 755 760 761 763 771 780 781 781 782 774 766 770 772 769 772 768 766 778 786 789 806 819 816 813 814 815 813 811 812 811 810 812 810 813 824 827 825 831 840 847 843 833 835 836 826 818 805 788 784 783 777 778 784 787 789 790 792 792 792 794 796
614 622 632 634 634 639 644 650 657 664 675 684 685 681 678 676 675 679 681 683 689 697 706 715 720 729 739 743 749 757 758 762 772 776 775 774 769 760 760 763 766 771 768 763 773 781 784 798 814 819 816 814 813 812 812 813 814 813 812 812 812 815 819 820 824 828 832 836 832 831 835 825 809 798 785 778 777 773 774 780 782 782 785 789 789 789 792 794
611 619 632 634 633 638 644 651 660 667 673 674 674 675 672 671 674 677 677 677 681 689 697 704 710 721 733 737 742 750 755 759 766 769 767 766 766 763 758 758 763 769 769 766 770 778 784 792 806 818 819 816 814 813 811 809 810 811 813 816 817 815 816 816 821 824 822 825 829 828 827 812 795 792 784 774 773 773 776 778 777 779 784 787 787 788 790 792
608 617 631 634 633 637 644 655 665 669 670 666 666 669 668 668 673 677 675 673 677 681 686 694 702 710 722 732 737 743 750 757 762 764 764 762 761 761 757 754 759 766 769 770 771 776 785 792 804 818 820 815 812 811 812 810 808 807 806 810 811 810 815 819 824 825 818 818 822 823 819 801 784 786 782 773 772 775 780 782 776 777 782 784 786 788 789 790
607 615 628 632 633 636 644 658 666 665 665 663 663 665 665 668 673 677 676 674 676 678 682 691 698 704 713 720 728 737 744 752 757 757 758 758 755 754 753 752 756 761 765 771 773 775 785 795 807 817 817 813 812 813 818 819 815 810 806 804 803 802 805 811 817 818 816 821 823 823 818 797 779 783 782 775 777 780 784 786 779 776 779 782 785 787 790 791
609 616 627 632 632 634 645 661 667 665 664 662 661 662 663 666 670 674 676 674 675 678 683 690 695 701 709 713 723 734 739 747 754 752 752 757 754 750 751 751 754 759 764 770 773 775 781 790 803 816 817 812 809 809 815 820 816 811 807 806 805 802 799 801 808 810 811 816 817 820 820 797 778 783 786 782 785 785 785 786 782 776 777 781 784 786 788 791
610 617 628 635 634 633 640 651 658 664 665 662 663 664 664 665 666 669 671 670 670 672 678 686 688 691 700 707 714 723 728 738 749 750 749 752 751 750 751 750 750 755 757 759 761 766 775 785 798 812 819 818 817 813 810 813 815 810 808 809 807 803 803 806 809 810 810 810 809 812 812 794 777 783 786 783 784 782 779 782 782 777 774 779 784 786 788 790
608 619 629 636 637 637 641 642 643 651 657 658 662 664 663 664 664 663 665 666 666 666 671 680 683 685 695 703 710 716 719 725 738 747 748 747 749 751 751 750 748 748 748 749 752 758 770 781 787 797 808 813 812 806 798 802 812 810 806 808 806 803 804 803 806 809 809 811 811 805 798 787 778 778 780 778 778 777 774 777 780 778 776 780 783 786 788 790
601 615 628 637 640 641 644 644 642 647 653 655 660 662 661 663 664 663 663 665 665 663 668 676 681 688 698 704 712 720 721 723 730 738 742 743 746 750 751 750 748 747 748 749 753 759 769 778 777 777 783 785 785 785 783 790 802 803 799 801 802 803 802 801 805 806 803 807 809 797 785 783 779 775 774 773 772 773 772 771 774 776 777 781 783 786 788 790
596 607 618 627 637 644 647 648 646 648 651 652 655 657 657 659 663 665 664 664 662 661 668 675 678 687 698 702 710 718 721 724 729 732 737 742 746 751 754 753 750 750 750 751 754 757 766 775 775 772 775 774 772 778 782 784 788 790 794 799 800 801 803 803 802 796 794 804 802 786 780 785 781 775 773 770 767 768 769 767 768 772 776 780 783 786 788 789
596 603 609 610 618 630 637 642 643 644 647 651 651 653 656 657 658 660 662 663 660 656 664 676 677 679 688 692 700 713 721 725 730 733 736 742 747 752 754 755 755 754 752 752 754 755 759 768 771 773 778 776 772 778 782 782 783 787 792 795 798 801 801 799 795 789 790 794 783 772 778 782 778 776 774 769 766 766 766 769 772 775 776 779 782 784 786 788
595 602 611 611 611 614 616 622 631 637 642 647 650 652 654 654 653 655 656 659 659 655 657 670 676 676 681 684 691 705 714 718 725 731 732 737 742 744 750 754 756 756 754 753 756 756 756 764 770 773 778 777 777 782 782 780 784 789 791 792 795 798 794 789 786 784 787 785 775 776 785 778 771 774 773 768 770 771 772 776 776 773 772 774 778 781 783 786
595 598 605 612 617 616 617 624 632 638 642 645 648 649 649 648 649 651 651 649 652 654 654 660 669 675 679 681 684 693 696 696 706 718 726 733 738 738 742 746 749 754 754 752 757 757 756 765 772 772 778 781 780 785 787 784 784 786 789 792 792 791 789 786 784 787 793 790 782 787 790 776 766 770 769 768 773 775 775 774 770 767 769 772 776 780 782 783
600 601 599 606 617 618 621 631 636 640 645 646 645 646 646 646 645 647 649 646 643 647 650 655 666 675 680 682 682 684 686 686 693 704 710 715 721 725 728 734 741 749 752 752 754 755 758 769 773 773 780 781 778 787 793 788 785 787 788 787 786 786 786 786 786 788 788 784 785 791 787 772 764 765 764 766 772 773 770 767 765 765 769 773 775 777 780 780
602 602 598 604 618 621 623 631 637 640 641 639 641 643 642 644 644 643 648 651 646 644 646 653 664 675 682 683 679 678 682 687 693 701 704 704 709 715 719 725 731 735 743 749 753 755 757 764 771 773 776 781 784 789 789 786 791 789 775 770 776 779 780 783 784 782 777 775 782 783 770 760 760 761 763 768 771 771 767 764 762 762 766 773 775 774 775 775